Flag for Germany Weather past 2 weeks in Aurich, Lower Saxony, Germany

Now
57 °F

Broken clouds.


Feels Like: 54 °F
Forecast: 50 / 62 °F
Wind: 16 mph from Northwest

Location: Wittmundhaven

Current Time: Jul 30, 2015 at 6:58:34 PM

Latest Report: Jul 30, 2015 at 6:20 PM


Visibility: N/A

Pressure: 29.95 "Hg

Humidity: 77%

Dew point: 50 °F

Location of AurichLocation

Historic Weather in Aurich — Graph

°F

Aurich temperature yesterday

Maximum temperature yesterday: 61 °F (at 11:20 AM)
Minimum temperature yesterday: 55 °F (at 5:20 AM)
Average temperature yesterday: 57 °F

Past Weeks' High & Low Weather Summary

 TemperatureHumidityPressure
High81 °F (Jul 17, 2:20 PM)100% (Jul 15, 9:20 PM)30.12 "Hg (Jul 15, 9:20 PM)
Low48 °F (Jul 24, 4:20 AM)50% (Jul 20, 3:20 PM)29.39 "Hg (Jul 25, 2:20 PM)
Average61 °F80%29.81 "Hg
* Reported Jul 15 5:20 PM — Jul 30 5:20 PM, Aurich, Weather by CustomWeather, © 2015

Note: Actual official high and low records may vary slightly from our data, if they occured in-between our weather recording intervals... More about our weather records

Advertising

Aurich weather history for previous 24 hours

 ConditionsComfort  
Time TempWeatherWind HumidityBarometerVisibility
5:20 PM
Thu, Jul 30
59 °FBroken clouds.18 mph72%29.92 "HgN/A
4:20 PM59 °FPartly sunny.22 mph68%29.92 "HgN/A
3:20 PM57 °FPartly sunny.18 mph72%29.92 "HgN/A
2:20 PM59 °FBroken clouds.21 mph72%29.89 "HgN/A
1:20 PM57 °FScattered showers. Partly sunny.24 mph72%29.86 "HgN/A
12:20 PM59 °FBroken clouds.18 mph72%29.86 "HgN/A
11:20 AM55 °FSprinkles. Fog.16 mph88%29.83 "Hg2 mi
10:20 AM55 °FPartly sunny.21 mph82%29.83 "HgN/A
9:20 AM54 °FPartly sunny.17 mph88%29.80 "HgN/A
8:20 AM57 °FPartly sunny.20 mph77%29.77 "HgN/A
7:20 AM55 °FPartly sunny.16 mph77%29.77 "HgN/A
6:20 AM55 °FPassing clouds.14 mph77%29.74 "HgN/A
5:20 AM55 °FPassing clouds.14 mph82%29.74 "HgN/A
4:20 AM55 °FPartly cloudy.17 mph88%29.71 "HgN/A
3:20 AM55 °FSprinkles. Partly cloudy.14 mph88%29.71 "HgN/A
2:20 AM57 °FPassing clouds.16 mph82%29.71 "HgN/A
1:20 AM57 °FPassing clouds.16 mph82%29.71 "HgN/A
12:20 AM57 °FPassing clouds.17 mph77%29.68 "HgN/A
11:20 PM
Wed, Jul 29
57 °FPassing clouds.21 mph82%29.68 "HgN/A
10:20 PM57 °FLight rain. Broken clouds.17 mph82%29.65 "Hg5 mi
9:20 PM55 °FBroken clouds.16 mph94%29.62 "Hg6 mi
8:20 PM55 °FDrizzle. Partly sunny.18 mph88%29.62 "Hg4 mi
7:20 PM55 °FRain. Broken clouds.18 mph88%29.59 "Hg4 mi
6:20 PM57 °FRain showers. Broken clouds.18 mph82%29.59 "Hg3 mi
Weather by CustomWeather, © 2015

See weather overviewHow to use our weather pages